Location: Newark
(34.6000°S, 58.3833°W)
Time: 08:16:25
(UTC+00:00)

N. Korean satellite - Visible Passes

Search period start: 21 October 2019 00:00
Search period end: 31 October 2019 00:00
Orbit: 455 x 508 km, 97.2° (Epoch: 20 October)

Date Brightness Start Highest point End Pass type
(mag) Time Alt. Az. Time Alt. Az. Time Alt. Az.
21 Oct 10.8 07:57:25 10° ESE 07:57:29 10° ESE 07:57:32 10° ESE visible
23 Oct 8.8 08:36:30 10° NE 08:39:54 34° ESE 08:43:19 10° S visible
24 Oct 10.1 08:12:21 10° ENE 08:14:47 17° ESE 08:17:11 10° SSE visible
24 Oct 10.4 22:49:12 10° SW 22:50:41 12° WSW 22:52:09 10° W visible
27 Oct 9.3 08:28:55 10° NE 08:32:05 27° ESE 08:35:16 10° SSE visible
28 Oct 10.3 08:05:08 10° E 08:06:58 13° ESE 08:08:48 10° SE visible
